owner,sensor,date,latitude,longitude,vertical_datum,direction_of_sea_water_velocity,sea_water_speed,upward_sea_water_velocity,qcFlag 
TABS,ioos:station:wmo:42045:1,2002-12-01T00:00:00Z,26.2168,-96.4998,2.0,219.702207,12.1007851,-99999.0,'11111222,11111222,99999999' 
TABS,ioos:station:wmo:42045:1,2002-12-01T00:30:00Z,26.2168,-96.4998,2.0,218.1961369,9.8486395,-99999.0,'11133222,11111222,99999999' 
TABS,ioos:station:wmo:42045:1,2002-12-01T01:00:00Z,26.2168,-96.4998,2.0,228.9821956,15.67906247,-99999.0,'11111222,11111222,99999999' 
TABS,ioos:station:wmo:42045:1,2002-12-01T01:30:00Z,26.2168,-96.4998,2.0,229.3598311,14.50939696,-99999.0,'11111222,11111222,99999999' 
TABS,ioos:station:wmo:42045:1,2002-12-01T02:00:00Z,26.2168,-96.4998,2.0,231.5864613,15.96579156,-99999.0,'11111222,11111222,99999999' 
TABS,ioos:station:wmo:42045:1,2002-12-01T02:30:00Z,26.2168,-96.4998,2.0,228.9448613,13.56617116,-99999.0,'11111222,11111222,99999999' 
TABS,ioos:station:wmo:42045:1,2002-12-01T03:00:00Z,26.2168,-96.4998,2.0,231.8515287,14.16552505,-99999.0,'11111222,11111222,99999999' 
TABS,ioos:station:wmo:42045:1,2002-12-01T03:30:00Z,26.2168,-96.4998,2.0,241.9146642,13.48823561,-99999.0,'11111222,11111222,99999999' 
TABS,ioos:station:wmo:42045:1,2002-12-01T04:00:00Z,26.2168,-96.4998,2.0,239.6760431,11.66606189,-99999.0,'11111222,11111222,99999999' 
TABS,ioos:station:wmo:42045:1,2002-12-01T04:30:00Z,26.2168,-96.4998,2.0,235.15226,10.71067225,-99999.0,'11111222,11111222,99999999' 
TABS,ioos:station:wmo:42045:1,2002-12-01T05:00:00Z,26.2168,-96.4998,2.0,236.283416,12.14238856,-99999.0,'11111222,11111222,99999999' 
TABS,ioos:station:wmo:42045:1,2002-12-01T05:30:00Z,26.2168,-96.4998,2.0,236.8006838,12.61989303,-99999.0,'11111222,11111222,99999999' 
TABS,ioos:station:wmo:42045:1,2002-12-01T06:00:00Z,26.2168,-96.4998,2.0,243.1565618,11.98099328,-99999.0,'11111222,11111222,99999999' 
TABS,ioos:station:wmo:42045:1,2002-12-01T06:30:00Z,26.2168,-96.4998,2.0,242.5599153,11.13244358,-99999.0,'11111222,11111222,99999999' 
TABS,ioos:station:wmo:42045:1,2002-12-01T07:00:00Z,26.2168,-96.4998,2.0,243.0349258,8.975795229,-99999.0,'11133222,11111222,99999999' 
TABS,ioos:station:wmo:42045:1,2002-12-01T07:30:00Z,26.2168,-96.4998,2.0,258.2256403,8.23322537,-99999.0,'11133222,11111222,99999999' 
TABS,ioos:station:wmo:42045:1,2002-12-01T08:00:00Z,26.2168,-96.4998,2.0,273.2849471,6.981468327,-99999.0,'11133222,11111222,99999999' 
TABS,ioos:station:wmo:42045:1,2002-12-01T08:30:00Z,26.2168,-96.4998,2.0,323.4092078,8.220097323,-99999.0,'11133222,11111222,99999999' 
TABS,ioos:station:wmo:42045:1,2002-12-01T09:00:00Z,26.2168,-96.4998,2.0,334.335079,8.542833254,-99999.0,'11133222,11111222,99999999' 
TABS,ioos:station:wmo:42045:1,2002-12-01T09:30:00Z,26.2168,-96.4998,2.0,343.0094269,7.152181485,-99999.0,'11133222,11111222,99999999' 
TABS,ioos:station:wmo:42045:1,2002-12-01T10:00:00Z,26.2168,-96.4998,2.0,14.61304863,6.02489004,-99999.0,'11133222,11111222,99999999' 
TABS,ioos:station:wmo:42045:1,2002-12-01T10:30:00Z,26.2168,-96.4998,2.0,17.63704356,7.492162572,-99999.0,'11133222,11111222,99999999' 
TABS,ioos:station:wmo:42045:1,2002-12-01T11:00:00Z,26.2168,-96.4998,2.0,29.19944968,8.076267702,-99999.0,'11133222,11111222,99999999' 
TABS,ioos:station:wmo:42045:1,2002-12-01T11:30:00Z,26.2168,-96.4998,2.0,56.01266384,8.550818674,-99999.0,'11133222,11111222,99999999' 
TABS,ioos:station:wmo:42045:1,2002-12-01T12:00:00Z,26.2168,-96.4998,2.0,63.54971679,8.935345545,-99999.0,'11133222,11111222,99999999' 
TABS,ioos:station:wmo:42045:1,2002-12-01T12:30:00Z,26.2168,-96.4998,2.0,79.0724234,8.229216245,-99999.0,'11133222,11111222,99999999' 
TABS,ioos:station:wmo:42045:1,2002-12-01T13:00:00Z,26.2168,-96.4998,2.0,67.3424587,5.840770497,-99999.0,'11133222,11111222,99999999' 
TABS,ioos:station:wmo:42045:1,2002-12-01T13:30:00Z,26.2168,-96.4998,2.0,75.87684611,6.393246437,-99999.0,'11133222,11111222,99999999' 
TABS,ioos:station:wmo:42045:1,2002-12-01T14:00:00Z,26.2168,-96.4998,2.0,94.71474349,3.893173513,-99999.0,'11133222,11111222,99999999' 
TABS,ioos:station:wmo:42045:1,2002-12-01T14:30:00Z,26.2168,-96.4998,2.0,94.84739606,5.680316893,-99999.0,'11133222,11111222,99999999' 
TABS,ioos:station:wmo:42045:1,2002-12-01T15:00:00Z,26.2168,-96.4998,2.0,355.6015154,1.173456433,-99999.0,'11133222,11111222,99999999' 
TABS,ioos:station:wmo:42045:1,2002-12-01T15:30:00Z,26.2168,-96.4998,2.0,52.78937249,3.026053536,-99999.0,'11133222,11111222,99999999' 
TABS,ioos:station:wmo:42045:1,2002-12-01T16:00:00Z,26.2168,-96.4998,2.0,115.1678113,0.917060521,-99999.0,'11133222,11111222,99999999' 
TABS,ioos:station:wmo:42045:1,2002-12-01T16:30:00Z,26.2168,-96.4998,2.0,138.9237749,1.963288058,-99999.0,'11133222,11111222,99999999' 
TABS,ioos:station:wmo:42045:1,2002-12-01T17:00:00Z,26.2168,-96.4998,2.0,126.6924261,3.23001548,-99999.0,'11133222,11111222,99999999' 
TABS,ioos:station:wmo:42045:1,2002-12-01T17:30:00Z,26.2168,-96.4998,2.0,134.9998948,1.909188309,-99999.0,'11133222,11111222,99999999' 
TABS,ioos:station:wmo:42045:1,2002-12-01T18:00:00Z,26.2168,-96.4998,2.0,120.6851013,1.058158778,-99999.0,'11133222,11111222,99999999' 
TABS,ioos:station:wmo:42045:1,2002-12-01T18:30:00Z,26.2168,-96.4998,2.0,140.559829,0.802807573,-99999.0,'11133222,11111222,99999999' 
TABS,ioos:station:wmo:42045:1,2002-12-01T19:00:00Z,26.2168,-96.4998,2.0,161.3305471,3.092733419,-99999.0,'11133222,11111222,99999999' 
TABS,ioos:station:wmo:42045:1,2002-12-01T19:30:00Z,26.2168,-96.4998,2.0,315.8554111,0.47381431,-99999.0,'11133222,11111222,99999999' 
TABS,ioos:station:wmo:42045:1,2002-12-01T20:00:00Z,26.2168,-96.4998,2.0,189.2853609,2.664920261,-99999.0,'11133222,11111222,99999999' 
TABS,ioos:station:wmo:42045:1,2002-12-01T20:30:00Z,26.2168,-96.4998,2.0,226.7010349,1.428985654,-99999.0,'11133222,11111222,99999999' 
TABS,ioos:station:wmo:42045:1,2002-12-01T21:00:00Z,26.2168,-96.4998,2.0,298.6108137,1.002397127,-99999.0,'11133222,11111222,99999999' 
TABS,ioos:station:wmo:42045:1,2002-12-01T21:30:00Z,26.2168,-96.4998,2.0,338.8390001,2.991738625,-99999.0,'11133222,11111222,99999999' 
TABS,ioos:station:wmo:42045:1,2002-12-01T22:00:00Z,26.2168,-96.4998,2.0,335.655914,3.808648054,-99999.0,'11133222,11111222,99999999' 
TABS,ioos:station:wmo:42045:1,2002-12-01T22:30:00Z,26.2168,-96.4998,2.0,339.7753983,1.822361106,-99999.0,'11133222,11111222,99999999' 
TABS,ioos:station:wmo:42045:1,2002-12-01T23:00:00Z,26.2168,-96.4998,2.0,321.4833742,2.50503493,-99999.0,'11133222,11111222,99999999' 
TABS,ioos:station:wmo:42045:1,2002-12-01T23:30:00Z,26.2168,-96.4998,2.0,320.0924189,2.151023012,-99999.0,'11133222,11111222,99999999' 
TABS,ioos:station:wmo:42045:1,2002-12-02T00:00:00Z,26.2168,-96.4998,2.0,270.4719794,4.860164606,-99999.0,'11133222,11111222,99999999' 
TABS,ioos:station:wmo:42045:1,2002-12-02T00:30:00Z,26.2168,-96.4998,2.0,307.4407676,3.816189199,-99999.0,'11133222,11111222,99999999' 
TABS,ioos:station:wmo:42045:1,2002-12-02T01:00:00Z,26.2168,-96.4998,2.0,321.9375494,3.746811978,-99999.0,'11133222,11111222,99999999' 
TABS,ioos:station:wmo:42045:1,2002-12-02T01:30:00Z,26.2168,-96.4998,2.0,268.8731245,3.560688136,-99999.0,'11133222,11111222,99999999' 
TABS,ioos:station:wmo:42045:1,2002-12-02T02:00:00Z,26.2168,-96.4998,2.0,190.6511539,2.218220007,-99999.0,'11133222,11111222,99999999' 
TABS,ioos:station:wmo:42045:1,2002-12-02T02:30:00Z,26.2168,-96.4998,2.0,191.4073863,13.80267365,-99999.0,'11111222,11111222,99999999' 
TABS,ioos:station:wmo:42045:1,2002-12-02T03:00:00Z,26.2168,-96.4998,2.0,184.6140428,15.28955526,-99999.0,'11111222,11111222,99999999' 
TABS,ioos:station:wmo:42045:1,2002-12-02T03:30:00Z,26.2168,-96.4998,2.0,192.0641463,17.12830698,-99999.0,'11111222,11111222,99999999' 
TABS,ioos:station:wmo:42045:1,2002-12-02T04:00:00Z,26.2168,-96.4998,2.0,189.8977648,14.48561355,-99999.0,'11111222,11111222,99999999' 
TABS,ioos:station:wmo:42045:1,2002-12-02T04:30:00Z,26.2168,-96.4998,2.0,180.8454203,16.26177112,-99999.0,'11111222,11111222,99999999' 
TABS,ioos:station:wmo:42045:1,2002-12-02T05:00:00Z,26.2168,-96.4998,2.0,184.3931414,16.44833122,-99999.0,'11111222,11111222,99999999' 
TABS,ioos:station:wmo:42045:1,2002-12-02T05:30:00Z,26.2168,-96.4998,2.0,192.9263386,15.77990177,-99999.0,'11111222,11111222,99999999' 
TABS,ioos:station:wmo:42045:1,2002-12-02T06:00:00Z,26.2168,-96.4998,2.0,183.0241552,18.19534281,-99999.0,'11111222,11111222,99999999' 
TABS,ioos:station:wmo:42045:1,2002-12-02T06:30:00Z,26.2168,-96.4998,2.0,187.1795128,16.88237543,-99999.0,'11111222,11111222,99999999' 
TABS,ioos:station:wmo:42045:1,2002-12-02T07:00:00Z,26.2168,-96.4998,2.0,185.0382227,20.95095463,-99999.0,'11111222,11111222,99999999' 
TABS,ioos:station:wmo:42045:1,2002-12-02T07:30:00Z,26.2168,-96.4998,2.0,192.9198582,20.17066434,-99999.0,'11111222,11111222,99999999' 
TABS,ioos:station:wmo:42045:1,2002-12-02T08:00:00Z,26.2168,-96.4998,2.0,192.5403017,21.18542895,-99999.0,'11111222,11111222,99999999' 
TABS,ioos:station:wmo:42045:1,2002-12-02T08:30:00Z,26.2168,-96.4998,2.0,192.5711037,21.91540554,-99999.0,'11111222,11111222,99999999' 
TABS,ioos:station:wmo:42045:1,2002-12-02T09:00:00Z,26.2168,-96.4998,2.0,193.5755697,21.42871438,-99999.0,'11111222,11111222,99999999' 
TABS,ioos:station:wmo:42045:1,2002-12-02T09:30:00Z,26.2168,-96.4998,2.0,193.9914567,21.83791428,-99999.0,'11111222,11111222,99999999' 
TABS,ioos:station:wmo:42045:1,2002-12-02T10:00:00Z,26.2168,-96.4998,2.0,199.9499154,20.80873855,-99999.0,'11111222,11111222,99999999' 
TABS,ioos:station:wmo:42045:1,2002-12-02T10:30:00Z,26.2168,-96.4998,2.0,200.2011817,21.74783208,-99999.0,'11111222,11111222,99999999' 
TABS,ioos:station:wmo:42045:1,2002-12-02T11:00:00Z,26.2168,-96.4998,2.0,202.3555153,19.19251156,-99999.0,'11111222,11111222,99999999' 
TABS,ioos:station:wmo:42045:1,2002-12-02T11:30:00Z,26.2168,-96.4998,2.0,225.6858269,11.80953005,-99999.0,'11111222,11111222,99999999' 
TABS,ioos:station:wmo:42045:1,2002-12-02T12:00:00Z,26.2168,-96.4998,2.0,251.5646734,7.241615842,-99999.0,'11133222,11111222,99999999' 
TABS,ioos:station:wmo:42045:1,2002-12-02T12:30:00Z,26.2168,-96.4998,2.0,242.0607138,8.58002331,-99999.0,'11133222,11111222,99999999' 
TABS,ioos:station:wmo:42045:1,2002-12-02T13:00:00Z,26.2168,-96.4998,2.0,239.2263296,7.739773899,-99999.0,'11133222,11111222,99999999' 
TABS,ioos:station:wmo:42045:1,2002-12-02T13:30:00Z,26.2168,-96.4998,2.0,262.300522,10.1515122,-99999.0,'11111222,11111222,99999999' 
TABS,ioos:station:wmo:42045:1,2002-12-02T14:00:00Z,26.2168,-96.4998,2.0,251.5142814,7.19102218,-99999.0,'11133222,11111222,99999999' 
TABS,ioos:station:wmo:42045:1,2002-12-02T14:30:00Z,26.2168,-96.4998,2.0,253.315973,10.55428823,-99999.0,'11111222,11111222,99999999' 
TABS,ioos:station:wmo:42045:1,2002-12-02T15:00:00Z,26.2168,-96.4998,2.0,273.8606723,7.426849938,-99999.0,'11133222,11111222,99999999' 
TABS,ioos:station:wmo:42045:1,2002-12-02T15:30:00Z,26.2168,-96.4998,2.0,266.1802242,7.206004441,-99999.0,'11133222,11111222,99999999' 
TABS,ioos:station:wmo:42045:1,2002-12-02T16:00:00Z,26.2168,-96.4998,2.0,258.9877747,7.538806272,-99999.0,'11133222,11111222,99999999' 
TABS,ioos:station:wmo:42045:1,2002-12-02T16:30:00Z,26.2168,-96.4998,2.0,292.1042692,5.979473221,-99999.0,'11133222,11111222,99999999' 
TABS,ioos:station:wmo:42045:1,2002-12-02T17:00:00Z,26.2168,-96.4998,2.0,288.5644676,4.209002257,-99999.0,'11133222,11111222,99999999' 
TABS,ioos:station:wmo:42045:1,2002-12-02T17:30:00Z,26.2168,-96.4998,2.0,299.8742121,4.958921254,-99999.0,'11133222,11111222,99999999' 
TABS,ioos:station:wmo:42045:1,2002-12-02T18:00:00Z,26.2168,-96.4998,2.0,316.8227441,3.112844358,-99999.0,'11133222,11111222,99999999' 
TABS,ioos:station:wmo:42045:1,2002-12-02T18:30:00Z,26.2168,-96.4998,2.0,358.4145768,2.891107054,-99999.0,'11133222,11111222,99999999' 
TABS,ioos:station:wmo:42045:1,2002-12-02T19:00:00Z,26.2168,-96.4998,2.0,43.91918357,1.499333185,-99999.0,'11133222,11111222,99999999' 
TABS,ioos:station:wmo:42045:1,2002-12-02T19:30:00Z,26.2168,-96.4998,2.0,86.13702616,3.117081969,-99999.0,'11133222,11111222,99999999' 
TABS,ioos:station:wmo:42045:1,2002-12-02T20:00:00Z,26.2168,-96.4998,2.0,86.64666735,2.564390766,-99999.0,'11133222,11111222,99999999' 
TABS,ioos:station:wmo:42045:1,2002-12-02T20:30:00Z,26.2168,-96.4998,2.0,74.55371975,1.576959099,-99999.0,'11133222,11111222,99999999' 
TABS,ioos:station:wmo:42045:1,2002-12-02T21:00:00Z,26.2168,-96.4998,2.0,108.0000325,3.333136661,-99999.0,'11133222,11111222,99999999' 
TABS,ioos:station:wmo:42045:1,2002-12-02T21:30:00Z,26.2168,-96.4998,2.0,122.2070189,6.322926538,-99999.0,'11133222,11111222,99999999' 
TABS,ioos:station:wmo:42045:1,2002-12-02T22:00:00Z,26.2168,-96.4998,2.0,123.5076482,7.843500494,-99999.0,'11133222,11111222,99999999' 
TABS,ioos:station:wmo:42045:1,2002-12-02T22:30:00Z,26.2168,-96.4998,2.0,136.2800313,7.596222746,-99999.0,'11133222,11111222,99999999' 
TABS,ioos:station:wmo:42045:1,2002-12-02T23:00:00Z,26.2168,-96.4998,2.0,134.2085688,10.23988281,-99999.0,'11111222,11111222,99999999' 
TABS,ioos:station:wmo:42045:1,2002-12-02T23:30:00Z,26.2168,-96.4998,2.0,153.885938,8.519683093,-99999.0,'11133222,11111222,99999999' 
TABS,ioos:station:wmo:42045:1,2002-12-03T00:00:00Z,26.2168,-96.4998,2.0,161.3884695,9.243381416,-99999.0,'11133222,11111222,99999999' 
TABS,ioos:station:wmo:42045:1,2002-12-03T00:30:00Z,26.2168,-96.4998,2.0,168.0678624,14.99396212,-99999.0,'11111222,11111222,99999999' 
TABS,ioos:station:wmo:42045:1,2002-12-03T01:00:00Z,26.2168,-96.4998,2.0,163.7332161,17.88600011,-99999.0,'11111222,11111222,99999999' 
TABS,ioos:station:wmo:42045:1,2002-12-03T01:30:00Z,26.2168,-96.4998,2.0,175.2796636,20.78047641,-99999.0,'11111222,11111222,99999999' 
TABS,ioos:station:wmo:42045:1,2002-12-03T02:00:00Z,26.2168,-96.4998,2.0,172.4209334,21.60876905,-99999.0,'11111222,11111222,99999999' 
TABS,ioos:station:wmo:42045:1,2002-12-03T02:30:00Z,26.2168,-96.4998,2.0,177.8641408,20.39416583,-99999.0,'11111222,11111222,99999999' 
TABS,ioos:station:wmo:42045:1,2002-12-03T03:00:00Z,26.2168,-96.4998,2.0,179.169013,17.93188501,-99999.0,'11111222,11111222,99999999' 
TABS,ioos:station:wmo:42045:1,2002-12-03T03:30:00Z,26.2168,-96.4998,2.0,182.3291756,17.71463801,-99999.0,'11111222,11111222,99999999' 
TABS,ioos:station:wmo:42045:1,2002-12-03T04:00:00Z,26.2168,-96.4998,2.0,187.1407791,17.7778992,-99999.0,'11111222,11111222,99999999' 
TABS,ioos:station:wmo:42045:1,2002-12-03T04:30:00Z,26.2168,-96.4998,2.0,183.7061959,18.40850347,-99999.0,'11111222,11111222,99999999' 
TABS,ioos:station:wmo:42045:1,2002-12-03T05:00:00Z,26.2168,-96.4998,2.0,184.0255866,16.38041819,-99999.0,'11111222,11111222,99999999' 
TABS,ioos:station:wmo:42045:1,2002-12-03T05:30:00Z,26.2168,-96.4998,2.0,192.3906172,16.21776803,-99999.0,'11111222,11111222,99999999' 
TABS,ioos:station:wmo:42045:1,2002-12-03T06:00:00Z,26.2168,-96.4998,2.0,188.1385633,18.64782025,-99999.0,'11111222,11111222,99999999' 
TABS,ioos:station:wmo:42045:1,2002-12-03T06:30:00Z,26.2168,-96.4998,2.0,191.8605344,16.93148842,-99999.0,'11111222,11111222,99999999' 
TABS,ioos:station:wmo:42045:1,2002-12-03T07:00:00Z,26.2168,-96.4998,2.0,192.0343068,13.95674031,-99999.0,'11111222,11111222,99999999' 
TABS,ioos:station:wmo:42045:1,2002-12-03T07:30:00Z,26.2168,-96.4998,2.0,202.6039162,14.0492313,-99999.0,'11111222,11111222,99999999' 
TABS,ioos:station:wmo:42045:1,2002-12-03T08:00:00Z,26.2168,-96.4998,2.0,199.2381115,13.08046635,-99999.0,'11111222,11111222,99999999' 
TABS,ioos:station:wmo:42045:1,2002-12-03T08:30:00Z,26.2168,-96.4998,2.0,191.1588011,12.65934043,-99999.0,'11111222,11111222,99999999' 
TABS,ioos:station:wmo:42045:1,2002-12-03T09:00:00Z,26.2168,-96.4998,2.0,187.2924366,8.902011009,-99999.0,'11133222,11111222,99999999' 
TABS,ioos:station:wmo:42045:1,2002-12-03T09:30:00Z,26.2168,-96.4998,2.0,184.8818467,12.45518767,-99999.0,'11111222,11111222,99999999' 
TABS,ioos:station:wmo:42045:1,2002-12-03T10:00:00Z,26.2168,-96.4998,2.0,189.1561895,12.31694767,-99999.0,'11111222,11111222,99999999' 
TABS,ioos:station:wmo:42045:1,2002-12-03T10:30:00Z,26.2168,-96.4998,2.0,198.3742568,11.99136356,-99999.0,'11111222,11111222,99999999' 
TABS,ioos:station:wmo:42045:1,2002-12-03T11:00:00Z,26.2168,-96.4998,2.0,203.5986327,11.84019003,-99999.0,'11111222,11111222,99999999' 
TABS,ioos:station:wmo:42045:1,2002-12-03T11:30:00Z,26.2168,-96.4998,2.0,205.9047782,10.09428056,-99999.0,'11111222,11111222,99999999' 
TABS,ioos:station:wmo:42045:1,2002-12-03T12:00:00Z,26.2168,-96.4998,2.0,208.2891267,10.25477937,-99999.0,'11111222,11111222,99999999' 
TABS,ioos:station:wmo:42045:1,2002-12-03T12:30:00Z,26.2168,-96.4998,2.0,194.7465595,8.996338144,-99999.0,'11133222,11111222,99999999' 
TABS,ioos:station:wmo:42045:1,2002-12-03T13:00:00Z,26.2168,-96.4998,2.0,201.4948316,7.641472371,-99999.0,'11133222,11111222,99999999' 
TABS,ioos:station:wmo:42045:1,2002-12-03T13:30:00Z,26.2168,-96.4998,2.0,208.91807,8.168537201,-99999.0,'11133222,11111222,99999999' 
TABS,ioos:station:wmo:42045:1,2002-12-03T14:00:00Z,26.2168,-96.4998,2.0,200.2729796,8.77351127,-99999.0,'11133222,11111222,99999999' 
TABS,ioos:station:wmo:42045:1,2002-12-03T14:30:00Z,26.2168,-96.4998,2.0,214.2722463,9.003249413,-99999.0,'11133222,11111222,99999999' 
TABS,ioos:station:wmo:42045:1,2002-12-03T15:00:00Z,26.2168,-96.4998,2.0,204.262834,8.127957923,-99999.0,'11133222,11111222,99999999' 
TABS,ioos:station:wmo:42045:1,2002-12-03T15:30:00Z,26.2168,-96.4998,2.0,203.8699033,5.041200254,-99999.0,'11133222,11111222,99999999' 
TABS,ioos:station:wmo:42045:1,2002-12-03T16:00:00Z,26.2168,-96.4998,2.0,216.1548913,5.932461546,-99999.0,'11133222,11111222,99999999' 
TABS,ioos:station:wmo:42045:1,2002-12-03T16:30:00Z,26.2168,-96.4998,2.0,194.8874068,5.059851776,-99999.0,'11133222,11111222,99999999' 
TABS,ioos:station:wmo:42045:1,2002-12-03T17:00:00Z,26.2168,-96.4998,2.0,186.4332514,6.782713321,-99999.0,'11133222,11111222,99999999' 
TABS,ioos:station:wmo:42045:1,2002-12-03T17:30:00Z,26.2168,-96.4998,2.0,151.969524,5.596472103,-99999.0,'11133222,11111222,99999999' 
TABS,ioos:station:wmo:42045:1,2002-12-03T18:00:00Z,26.2168,-96.4998,2.0,159.0248396,5.922440375,-99999.0,'11133222,11111222,99999999' 
TABS,ioos:station:wmo:42045:1,2002-12-03T18:30:00Z,26.2168,-96.4998,2.0,129.8660229,3.634969051,-99999.0,'11133222,11111222,99999999' 
TABS,ioos:station:wmo:42045:1,2002-12-03T19:00:00Z,26.2168,-96.4998,2.0,128.8654992,3.043846251,-99999.0,'11133222,11111222,99999999' 
TABS,ioos:station:wmo:42045:1,2002-12-03T19:30:00Z,26.2168,-96.4998,2.0,147.0215113,5.805385431,-99999.0,'11133222,11111222,99999999' 
TABS,ioos:station:wmo:42045:1,2002-12-03T20:00:00Z,26.2168,-96.4998,2.0,158.4617565,4.848556486,-99999.0,'11133222,11111222,99999999' 
TABS,ioos:station:wmo:42045:1,2002-12-03T20:30:00Z,26.2168,-96.4998,2.0,116.0646031,5.120790955,-99999.0,'11133222,11111222,99999999' 
TABS,ioos:station:wmo:42045:1,2002-12-03T21:00:00Z,26.2168,-96.4998,2.0,127.1236111,5.418053156,-99999.0,'11133222,11111222,99999999' 
TABS,ioos:station:wmo:42045:1,2002-12-03T21:30:00Z,26.2168,-96.4998,2.0,142.7750169,5.48810532,-99999.0,'11133222,11111222,99999999' 
TABS,ioos:station:wmo:42045:1,2002-12-03T22:00:00Z,26.2168,-96.4998,2.0,153.9547962,5.420452011,-99999.0,'11133222,11111222,99999999' 
TABS,ioos:station:wmo:42045:1,2002-12-03T22:30:00Z,26.2168,-96.4998,2.0,201.4236241,4.791043728,-99999.0,'11133222,11111222,99999999' 
TABS,ioos:station:wmo:42045:1,2002-12-03T23:00:00Z,26.2168,-96.4998,2.0,146.8354342,3.930216279,-99999.0,'11133222,11111222,99999999' 
TABS,ioos:station:wmo:42045:1,2002-12-03T23:30:00Z,26.2168,-96.4998,2.0,171.0473371,1.478005413,-99999.0,'11133222,11111222,99999999' 
TABS,ioos:station:wmo:42045:1,2002-12-04T00:00:00Z,26.2168,-96.4998,2.0,96.70982112,0.171172428,-99999.0,'11133222,11111222,99999999' 
TABS,ioos:station:wmo:42045:1,2002-12-04T00:30:00Z,26.2168,-96.4998,2.0,173.1570321,6.04304559,-99999.0,'11133222,11111222,99999999' 
TABS,ioos:station:wmo:42045:1,2002-12-04T01:00:00Z,26.2168,-96.4998,2.0,153.1923662,6.341545553,-99999.0,'11133222,11111222,99999999' 
TABS,ioos:station:wmo:42045:1,2002-12-04T01:30:00Z,26.2168,-96.4998,2.0,157.6769834,8.161648118,-99999.0,'11133222,11111222,99999999' 
TABS,ioos:station:wmo:42045:1,2002-12-04T02:00:00Z,26.2168,-96.4998,2.0,161.4863429,9.227534882,-99999.0,'11133222,11111222,99999999' 
TABS,ioos:station:wmo:42045:1,2002-12-04T02:30:00Z,26.2168,-96.4998,2.0,96.04559301,22.12304003,-99999.0,'11111222,11111222,99999999' 
TABS,ioos:station:wmo:42045:1,2002-12-04T03:00:00Z,26.2168,-96.4998,2.0,103.1730897,20.93077399,-99999.0,'11111222,11111222,99999999' 
TABS,ioos:station:wmo:42045:1,2002-12-04T03:30:00Z,26.2168,-96.4998,2.0,113.2794432,22.31686358,-99999.0,'11111222,11111222,99999999' 
TABS,ioos:station:wmo:42045:1,2002-12-04T04:00:00Z,26.2168,-96.4998,2.0,106.7400348,18.81745998,-99999.0,'11111222,11111222,99999999' 
TABS,ioos:station:wmo:42045:1,2002-12-04T04:30:00Z,26.2168,-96.4998,2.0,111.4294464,20.88373769,-99999.0,'11111222,11111222,99999999' 
TABS,ioos:station:wmo:42045:1,2002-12-04T05:00:00Z,26.2168,-96.4998,2.0,112.3592836,20.97713994,-99999.0,'11111222,11111222,99999999' 
TABS,ioos:station:wmo:42045:1,2002-12-04T05:30:00Z,26.2168,-96.4998,2.0,122.0113035,20.26079959,-99999.0,'11111222,11111222,99999999' 
TABS,ioos:station:wmo:42045:1,2002-12-04T06:00:00Z,26.2168,-96.4998,2.0,121.968974,16.71510993,-99999.0,'11111222,11111222,99999999' 
TABS,ioos:station:wmo:42045:1,2002-12-04T06:30:00Z,26.2168,-96.4998,2.0,115.963769,18.75269847,-99999.0,'11111222,11111222,99999999' 
TABS,ioos:station:wmo:42045:1,2002-12-04T07:00:00Z,26.2168,-96.4998,2.0,110.8378093,16.89509396,-99999.0,'11111222,11111222,99999999' 
TABS,ioos:station:wmo:42045:1,2002-12-04T07:30:00Z,26.2168,-96.4998,2.0,113.3089694,15.66882574,-99999.0,'11111222,11111222,99999999' 
TABS,ioos:station:wmo:42045:1,2002-12-04T08:00:00Z,26.2168,-96.4998,2.0,122.2005723,14.61851566,-99999.0,'11111222,11111222,99999999' 
TABS,ioos:station:wmo:42045:1,2002-12-04T08:30:00Z,26.2168,-96.4998,2.0,95.36656923,13.2581145,-99999.0,'11111222,11111222,99999999' 
TABS,ioos:station:wmo:42045:1,2002-12-04T09:00:00Z,26.2168,-96.4998,2.0,107.676466,15.05059799,-99999.0,'11111222,11111222,99999999' 
TABS,ioos:station:wmo:42045:1,2002-12-04T09:30:00Z,26.2168,-96.4998,2.0,99.25977356,14.41788126,-99999.0,'11111222,11111222,99999999' 
TABS,ioos:station:wmo:42045:1,2002-12-04T10:00:00Z,26.2168,-96.4998,2.0,111.9756311,15.87331093,-99999.0,'11111222,11111222,99999999' 
TABS,ioos:station:wmo:42045:1,2002-12-04T10:30:00Z,26.2168,-96.4998,2.0,119.7006135,14.47113679,-99999.0,'11111222,11111222,99999999' 
TABS,ioos:station:wmo:42045:1,2002-12-04T11:00:00Z,26.2168,-96.4998,2.0,114.6911945,19.55816454,-99999.0,'11111222,11111222,99999999' 
TABS,ioos:station:wmo:42045:1,2002-12-04T11:30:00Z,26.2168,-96.4998,2.0,117.1519824,16.58802279,-99999.0,'11111222,11111222,99999999' 
TABS,ioos:station:wmo:42045:1,2002-12-04T12:00:00Z,26.2168,-96.4998,2.0,119.5050824,14.82228053,-99999.0,'11111222,11111222,99999999' 
TABS,ioos:station:wmo:42045:1,2002-12-04T12:30:00Z,26.2168,-96.4998,2.0,125.4918314,2.910841803,-99999.0,'11133222,11111222,99999999' 
TABS,ioos:station:wmo:42045:1,2002-12-04T13:00:00Z,26.2168,-96.4998,2.0,117.2665333,16.43633171,-99999.0,'11111222,11111222,99999999' 
TABS,ioos:station:wmo:42045:1,2002-12-04T13:30:00Z,26.2168,-96.4998,2.0,118.2099373,20.09711671,-99999.0,'11111222,11111222,99999999' 
TABS,ioos:station:wmo:42045:1,2002-12-04T14:00:00Z,26.2168,-96.4998,2.0,122.5128466,21.06086418,-99999.0,'11111222,11111222,99999999' 
TABS,ioos:station:wmo:42045:1,2002-12-04T14:30:00Z,26.2168,-96.4998,2.0,121.7510824,16.72269117,-99999.0,'11111222,11111222,99999999' 
TABS,ioos:station:wmo:42045:1,2002-12-04T15:00:00Z,26.2168,-96.4998,2.0,117.4814375,20.13165915,-99999.0,'11111222,11111222,99999999' 
TABS,ioos:station:wmo:42045:1,2002-12-04T15:30:00Z,26.2168,-96.4998,2.0,127.3047763,23.71068325,-99999.0,'11111222,11111222,99999999' 
TABS,ioos:station:wmo:42045:1,2002-12-04T16:00:00Z,26.2168,-96.4998,2.0,143.0805906,18.5620069,-99999.0,'11111222,11111222,99999999' 